(340430) = 2006 FD32

Discovered at Kitt Peak on 2006-03-25 by Spacewatch.

Orbit

Orbit type: Main Belt

Note: WebGL enabled browser required.

epoch2024-03-31.0
epoch JD2460400.5
perihelion date2020-12-26.95843
perihelion JD2459210.45843
argument of perihelion (°)286.58749
ascending node (°)36.70615
inclination (°)2.30653
eccentricity0.0674222
perihelion distance (AU)2.5283618
Tisserand w.r.t. Jupiter3.4
ΔV w.r.t. Earth (km/sec)10.0
semimajor axis (AU)2.7111536
mean anomaly (°)262.74520
mean daily motion (°/day)0.22078660
aphelion distance (AU)2.894
period (years)4.46
P-vector [x]0.80124524
P-vector [y]-0.53247820
P-vector [z]-0.27289748
Q-vector [x]0.59785233
Q-vector [y]0.73081363
Q-vector [z]0.32936914
absolute magnitude17.16
phase slope0.15
uncertainty0
referenceMPEC 2024-F50
observations used154
oppositions13
arc length (days)7478
first opposition used2003
last opposition used2024
residual rms (arc-secs)0.77
perturbers coarse indicatorM-v
perturbers precise indicator003Ek
first observation date used2003-09-28.0
last observation date used2024-03-19.0
computer nameMPCLINUX
JD of orbit computation2456700.306061
perihelion JD uncertainty (days)4.1075E-04
argument of perihelion uncertainty (°)1.5339E-04
ascending node uncertainty (°)1.2658E-04
inclination uncertainty (°)1.1720E-05
eccentricity uncertainty 8.2264E-08
perihelion distance uncertainty (AU)2.1475E-07
Minimum Orbit Intersection Distances (in AU)
for orbit epoch: 2460400.5, reference: E2024-GD4
Mercury2.10169
Venus1.80037
Earth1.51696
Mars1.13495
Jupiter2.30124
Saturn6.21181
Uranus15.557
Neptune27.1441

Observations

159 total observations over interval: 2003 09 28.30522 – 2024 03 19.631021
These data are available for download (format description).

Date (UT) J2000 RA J2000 Dec Magn Location Ref
2003 09 28.30522 01 40 53.11 +09 12 46.2 21.1 V 691 – Steward Observatory, Kitt Peak-Spacewatch MPS 175449
2003 09 28.33612 01 40 51.72 +09 12 39.9 21.6 V 691 – Steward Observatory, Kitt Peak-Spacewatch MPS 175449
2003 09 28.36980 01 40 50.15 +09 12 33.3 21.4 V 691 – Steward Observatory, Kitt Peak-Spacewatch MPS 175449
2003 10 16.29002 01 25 58.58 +08 01 42.7 20.8 V 691 – Steward Observatory, Kitt Peak-Spacewatch MPS 175449
2003 10 16.31765 01 25 57.06 +08 01 35.6 20.9 V 691 – Steward Observatory, Kitt Peak-Spacewatch MPS 175449
2003 10 16.34543 01 25 55.54 +08 01 28.8 20.9 V 691 – Steward Observatory, Kitt Peak-Spacewatch MPS 175449
2003 11 21.15954 01 02 07.55 +06 14 59.6 20.5 R 695 – Kitt Peak MPS 178599
2003 11 21.20866 01 02 06.58 +06 14 57.0   695 – Kitt Peak MPS 178599
2006 03 25.36733 14 19 43.04 -13 14 54.0 21.2 V 691 – Steward Observatory, Kitt Peak-Spacewatch MPS 167257
2006 03 25.38460 14 19 42.49 -13 14 51.6 21.9 V 691 – Steward Observatory, Kitt Peak-Spacewatch MPS 167257
2006 03 25.40189 14 19 41.93 -13 14 49.5 21.2 V 691 – Steward Observatory, Kitt Peak-Spacewatch MPS 167257
2006 03 26.38032 14 19 10.74 -13 12 47.8 21.2 V G96 – Mt. Lemmon Survey MPS 167257
2006 03 26.38802 14 19 10.48 -13 12 47.1 21.5 V G96 – Mt. Lemmon Survey MPS 167257
2006 03 26.39568 14 19 10.23 -13 12 45.4 21.9 V G96 – Mt. Lemmon Survey MPS 167257
2006 03 26.40350 14 19 09.94 -13 12 45.3 21.8 V G96 – Mt. Lemmon Survey MPS 167257
2006 04 19.31813 14 01 19.59 -11 57 25.5 20.7 V G96 – Mt. Lemmon Survey MPS 176075
2006 04 19.32845 14 01 19.09 -11 57 23.0 20.6 V G96 – Mt. Lemmon Survey MPS 176075
2006 04 19.33865 14 01 18.48 -11 57 20.5 21.0 V G96 – Mt. Lemmon Survey MPS 176075
2006 04 19.34929 14 01 17.90 -11 57 18.2 21.1 V G96 – Mt. Lemmon Survey MPS 176075
2006 05 01.39773 13 50 48.40 -11 10 26.8 21.0 R 568 – Maunakea MPS 175449
2006 05 01.42811 13 50 46.79 -11 10 19.3 20.9 R 568 – Maunakea MPS 175449
2006 05 01.45998 13 50 45.11 -11 10 12.0 20.9 R 568 – Maunakea MPS 175449
2006 05 06.24160 13 46 50.55 -10 52 37.7 20.6 V G96 – Mt. Lemmon Survey MPS 175449
2006 05 06.24723 13 46 50.26 -10 52 36.6 21.4 V G96 – Mt. Lemmon Survey MPS 175449
2006 05 06.25284 13 46 50.01 -10 52 35.3 21.0 V G96 – Mt. Lemmon Survey MPS 175449
2006 05 06.25850 13 46 49.69 -10 52 34.5 21.2 V G96 – Mt. Lemmon Survey MPS 175449
2007 10 15.13235 21 35 54.52 -17 01 31.9 21.9 V G96 – Mt. Lemmon Survey MPS 468629
2007 10 15.13809 21 35 54.63 -17 01 30.7 21.0 V G96 – Mt. Lemmon Survey MPS 468629
2007 10 15.14373 21 35 54.74 -17 01 29.7 21.3 V G96 – Mt. Lemmon Survey MPS 468629
2007 10 15.14949 21 35 54.81 -17 01 29.1 21.1 V G96 – Mt. Lemmon Survey MPS 468629
2008 11 19.36486 05 30 19.54 +25 22 09.7 20.9 V G96 – Mt. Lemmon Survey MPS 265276
2008 11 19.37088 05 30 19.26 +25 22 09.6 20.3 V G96 – Mt. Lemmon Survey MPS 265276
2008 11 19.37683 05 30 18.93 +25 22 09.9 20.6 V G96 – Mt. Lemmon Survey MPS 265276
2008 11 19.38276 05 30 18.68 +25 22 10.4 20.3 V G96 – Mt. Lemmon Survey MPS 265276
2008 12 02.27771 05 18 34.40 +25 23 52.0 20.5 V 691 – Steward Observatory, Kitt Peak-Spacewatch MPS 267556
2008 12 02.29535 05 18 33.34 +25 23 51.6 20.9 V 691 – Steward Observatory, Kitt Peak-Spacewatch MPS 267556
2008 12 02.31301 05 18 32.24 +25 23 51.7 20.6 V 691 – Steward Observatory, Kitt Peak-Spacewatch MPS 267556
2010 02 09.31373 11 42 35.37 +04 48 17.7 21.6 V 691 – Steward Observatory, Kitt Peak-Spacewatch MPS 313296
2010 02 09.33133 11 42 34.85 +04 48 20.9 21.9 V 691 – Steward Observatory, Kitt Peak-Spacewatch MPS 313296
2010 02 09.34894 11 42 34.33 +04 48 24.8 21.3 V 691 – Steward Observatory, Kitt Peak-Spacewatch MPS 313296
2010 03 18.30411 11 14 44.59 +07 38 22.1 21.2 V G96 – Mt. Lemmon Survey MPS 317951
2010 03 18.30883 11 14 44.34 +07 38 23.5 21.7 V G96 – Mt. Lemmon Survey MPS 317951
2010 03 18.31359 11 14 44.08 +07 38 24.7 21.6 V G96 – Mt. Lemmon Survey MPS 317951
2010 03 18.31839 11 14 43.72 +07 38 25.2 19.8 V G96 – Mt. Lemmon Survey MPS 317951
2010 04 11.23089 10 58 36.26 +08 55 38.3 20.2 V G96 – Mt. Lemmon Survey MPS 322242
2010 04 11.23744 10 58 36.04 +08 55 40.2 21.3 V G96 – Mt. Lemmon Survey MPS 322242
2010 04 11.24402 10 58 35.86 +08 55 40.9 20.0 V G96 – Mt. Lemmon Survey MPS 322242
2010 04 11.25058 10 58 35.68 +08 55 41.4 20.0 V G96 – Mt. Lemmon Survey MPS 322242
2012 10 10.23385 02 06 48.41 +12 11 24.1 21.1 V 691 – Steward Observatory, Kitt Peak-Spacewatch MPS 435110
2012 10 10.25151 02 06 47.55 +12 11 21.7 20.9 V 691 – Steward Observatory, Kitt Peak-Spacewatch MPS 435110
2012 10 10.26919 02 06 46.68 +12 11 18.7 21.0 V 691 – Steward Observatory, Kitt Peak-Spacewatch MPS 435110
2012 10 17.404134 02 00 40.468 +11 45 17.58 20.6 w F51 – Pan-STARRS 1, Haleakala MPS 435110
2012 10 17.417556 02 00 39.734 +11 45 14.56 20.6 w F51 – Pan-STARRS 1, Haleakala MPS 435110
2012 10 17.430978 02 00 38.989 +11 45 11.43 20.6 w F51 – Pan-STARRS 1, Haleakala MPS 435110
2012 10 17.444507 02 00 38.244 +11 45 08.37 20.4 w F51 – Pan-STARRS 1, Haleakala MPS 435110
2012 11 02.19103 01 46 42.20 +10 43 54.5 21.8 V G96 – Mt. Lemmon Survey MPS 441621
2012 11 02.19731 01 46 41.84 +10 43 53.7 20.4 V G96 – Mt. Lemmon Survey MPS 441621
2012 11 02.20365 01 46 41.55 +10 43 51.8 21.0 V G96 – Mt. Lemmon Survey MPS 441621
2012 11 02.21005 01 46 41.16 +10 43 50.4 20.6 V G96 – Mt. Lemmon Survey MPS 441621
2012 11 02.320806 01 46 35.673 +10 43 27.03 20.5 i F51 – Pan-STARRS 1, Haleakala MPS 441621
2012 11 02.332976 01 46 35.011 +10 43 24.58 20.8 i F51 – Pan-STARRS 1, Haleakala MPS 441621
2012 11 07.19240 01 42 39.63 +10 26 04.3 20.7 V G96 – Mt. Lemmon Survey MPS 441621
2012 11 07.19785 01 42 39.38 +10 26 03.1 20.6 V G96 – Mt. Lemmon Survey MPS 441621
2012 11 07.20330 01 42 39.13 +10 26 02.6 20.3 V G96 – Mt. Lemmon Survey MPS 441621
2012 11 07.20868 01 42 38.88 +10 26 01.1 20.8 V G96 – Mt. Lemmon Survey MPS 441621
2012 11 07.275386 01 42 35.893 +10 25 48.24 20.8 w F51 – Pan-STARRS 1, Haleakala MPS 441621
2012 11 07.303486 01 42 34.556 +10 25 42.48 21.0 w F51 – Pan-STARRS 1, Haleakala MPS 441621
2012 11 07.317596 01 42 33.864 +10 25 39.60 20.8 w F51 – Pan-STARRS 1, Haleakala MPS 441621
2014 02 08.28219 08 34 38.16 +22 16 49.1 22.1 V G96 – Mt. Lemmon Survey MPS 501582
2014 02 08.28634 08 34 37.90 +22 16 49.7 21.1 V G96 – Mt. Lemmon Survey MPS 501582
2014 02 08.29050 08 34 37.67 +22 16 50.4 21.9 V G96 – Mt. Lemmon Survey MPS 501582
2014 02 08.29467 08 34 37.47 +22 16 51.0 21.2 V G96 – Mt. Lemmon Survey MPS 501582
2015 04 23.39366 14 30 43.928 -14 53 07.47 20.9 w F51 – Pan-STARRS 1, Haleakala MPS 602997
2015 04 23.40617 14 30 43.235 -14 53 05.14 20.8 w F51 – Pan-STARRS 1, Haleakala MPS 602997
2015 04 23.41866 14 30 42.565 -14 53 02.47 21.0 w F51 – Pan-STARRS 1, Haleakala MPS 602997
2015 04 23.43115 14 30 41.891 -14 53 00.09 20.8 w F51 – Pan-STARRS 1, Haleakala MPS 602997
2015 04 25.29273 14 29 03.55 -14 46 38.2 21.0 V W84 – Cerro Tololo-DECam MPS 1280762
2015 04 25.32723 14 29 01.67 -14 46 31.0   W84 – Cerro Tololo-DECam MPS 1280762
2015 04 25.36171 14 28 59.79 -14 46 23.8   W84 – Cerro Tololo-DECam MPS 1280762
2015 04 25.45822 14 28 54.900 -14 46 08.51 20.6 w F51 – Pan-STARRS 1, Haleakala MPS 604513
2015 04 25.47046 14 28 54.227 -14 46 06.04 20.7 w F51 – Pan-STARRS 1, Haleakala MPS 604513
2015 04 25.48256 14 28 53.556 -14 46 03.50 20.6 w F51 – Pan-STARRS 1, Haleakala MPS 604513
2015 04 25.49508 14 28 52.878 -14 46 00.88 20.7 w F51 – Pan-STARRS 1, Haleakala MPS 604513
2015 04 26.27329 14 28 11.48 -14 43 16.3 20.7 V W84 – Cerro Tololo-DECam MPS 814856
2015 04 26.30860 14 28 09.52 -14 43 08.8   W84 – Cerro Tololo-DECam MPS 814856
2015 04 26.34307 14 28 07.64 -14 43 01.5   W84 – Cerro Tololo-DECam MPS 814856
2015 05 10.24377 14 15 53.27 -13 54 06.9 21.3 V G96 – Mt. Lemmon Survey MPS 607187
2015 05 10.24836 14 15 53.04 -13 54 05.9 21.0 V G96 – Mt. Lemmon Survey MPS 607187
2015 05 10.25293 14 15 52.76 -13 54 05.2 20.8 V G96 – Mt. Lemmon Survey MPS 607187
2015 05 10.25751 14 15 52.52 -13 54 03.2 21.9 V G96 – Mt. Lemmon Survey MPS 607187
2015 05 22.38824 14 06 38.589 -13 16 03.40 21.3 w F51 – Pan-STARRS 1, Haleakala MPS 609731
2015 05 22.40150 14 06 38.040 -13 16 01.16 21.3 w F51 – Pan-STARRS 1, Haleakala MPS 609731
